[[{"header":{"parameterUnit":"m.s-1","parameterCategory":1,"la1":30.2991,"la2":30.254,"lo1":-89.0895,"lo2":-89.0444,"dy":0.0017,"dx":0.0017,"nx":28,"ny":28,"refTime":"2025-08-15T03:00:00:Z","depth":0,"parameterNumber":2,"parameterNumberName":"U-component_of_WINDS"},"data":[0,0,0,0,0,0,0,0,0,0,0,0,0,0,0,0,0,0,0,0,0,0,0,0,0,0,0,0,0,0,0,0,0,0,0,0,0,0,0,0,0,0,0,0,0,0,0,0,0,0,0,0,0,0,0,0,0,0,2.2024,2.2025,0,2.2118,2.2119,2.212,2.2101,2.2099,2.2098,2.2096,2.2192,2.2196,2.22,0,0,0,0,0,0,0,0,0,0,0,0,0,2.1826,2.183,2.2024,2.2025,2.2026,2.2118,2.2119,2.2121,2.2101,2.2099,2.2097,2.2095,2.2191,2.2196,2.2201,0,0,0,0,0,0,0,0,0,0,0,0,0,2.1915,2.1831,2.2023,2.2028,2.2029,2.2118,2.2119,2.2121,2.2102,2.2099,2.2097,2.2094,2.2189,2.2195,2.2201,2.2292,0,0,2.2221,2.2223,0,0,0,0,0,0,0,0,2.191,2.1923,2.2026,2.2027,2.2029,2.2095,2.2085,2.2178,2.2102,2.2074,2.2096,2.2093,2.2162,2.217,2.2194,2.2296,2.2301,2.2221,2.2225,2.2228,2.2229,0,0,0,0,0,0,0,2.1904,2.1919,2.2061,2.2027,2.2029,2.2024,2.2034,2.2102,2.2131,2.2076,2.2075,2.2087,2.2162,2.2188,2.2196,2.2302,2.2221,2.2226,2.223,2.2233,2.2484,2.2486,0,0,0,0,0,0,2.1897,2.1914,2.2058,2.2064,2.1962,2.203,2.2041,2.2077,2.2131,2.2136,2.2089,2.2085,2.2178,2.2189,2.2199,2.2308,2.2228,2.2233,2.2237,2.2481,2.2484,2.2487,0,0,0,0,0,0,2.1893,2.191,2.2054,2.1988,2.2006,2.2036,2.2076,2.208,2.2105,2.214,2.2145,2.2109,2.2177,2.219,2.2269,2.2311,2.2236,2.2242,2.2477,2.2482,2.2486,2.2528,0,0,0,0,0,0,2.1887,2.1908,2.1943,2.1989,2.201,2.2123,2.2079,2.2083,2.2116,2.2112,2.2161,2.2166,2.2176,2.226,2.2275,2.2319,2.2247,2.2474,2.2479,2.2485,2.2523,2.2533,2.2542,0,0,0,0,0,2.188,2.1951,2.1945,2.1963,2.2054,2.2125,2.2137,2.2147,2.2119,2.2155,2.2177,2.2165,2.2305,2.2268,2.2285,2.2331,2.2471,2.2478,2.2484,2.2518,2.2531,2.2542,0,0,0,0,0,0,2.1909,2.1957,2.1951,2.2039,2.2078,2.2122,2.2166,2.216,2.2207,2.2202,2.2212,2.2223,2.2303,2.2325,2.2283,2.2422,2.2384,2.2394,2.2404,2.2416,2.2426,2.2418,2.2252,0,0,0,0,0,2.1925,2.1979,2.2019,2.2093,2.2113,2.2136,2.2167,2.2172,2.2212,2.2229,2.2257,2.2297,2.235,2.2384,2.2435,2.2526,2.2536,2.2566,2.2576,2.2583,2.2592,2.2642,2.2655,2.2509,2.2509,2.2509,0,0,2.196,2.1993,2.2027,2.2099,2.213,2.2185,2.215,2.221,2.2251,2.2238,2.2314,2.2336,2.2381,2.2466,2.2505,2.2487,2.2635,2.2592,2.2598,2.2602,2.265,2.2664,2.2676,2.2513,2.2513,2.2512,0,0,2.2052,2.2083,2.2147,2.2179,2.2226,2.2242,2.2257,2.2302,2.2316,2.2393,2.2384,2.2433,2.2524,2.2556,2.2585,2.2689,2.268,2.2706,2.2755,2.2804,2.2815,2.2825,2.2862,2.2875,2.2714,2.2714,2.2715,0,2.2089,2.2172,2.2182,2.2243,2.2275,2.2266,2.2331,2.2361,2.2423,2.2445,2.2424,2.2538,2.2568,2.2661,2.2686,2.271,2.2728,2.27,2.2813,2.2823,2.2833,2.2868,2.2882,2.2717,2.2717,2.2717,2.2716,0,2.2215,2.2273,2.232,2.2379,2.2417,2.248,2.2499,2.2536,2.2537,2.2554,2.2632,2.2668,2.2725,2.2748,2.275,2.2841,2.2828,2.281,2.2772,2.2849,2.2883,2.2896,2.2721,2.272,2.2719,2.2719,0,0,2.2327,2.2391,2.2408,2.2435,2.2487,2.2531,2.2594,2.2651,2.2682,2.2725,2.2777,2.2855,2.2838,2.2871,2.2876,2.2918,2.2998,2.2895,2.2896,2.2912,2.3101,2.3114,2.3129,2.2993,2.2995,2.2997,2.3097,0,2.2423,2.2533,2.2544,2.2643,2.2696,2.2689,2.2743,2.2781,2.2799,2.2847,2.2867,2.2922,2.2896,2.2915,2.2957,2.298,2.3036,2.2973,2.3041,2.3044,2.3029,2.3147,2.316,2.3252,2.311,2.3112,2.3114,0,2.2549,2.2596,2.27,2.2744,2.2767,2.2816,2.2869,2.2915,2.2957,2.2967,2.3004,2.3003,2.3068,2.3028,2.3117,2.3074,2.3103,2.3118,2.3122,2.3128,2.3083,2.3155,2.3282,2.3296,2.3135,2.3133,2.3131,0,2.2619,2.2708,2.2782,2.2805,2.2859,2.2893,2.2917,2.2957,2.2991,2.3037,2.3058,2.3112,2.314,2.3182,2.3196,2.3166,2.3284,2.3245,2.3294,2.3293,2.3318,2.3316,2.3451,2.3338,2.3338,2.3338,2.3337,0,2.2725,2.2789,2.2814,2.286,2.2931,2.2943,2.3013,2.3035,2.3071,2.3121,2.3118,2.3164,2.318,2.3229,2.3241,2.3312,2.3326,2.3335,2.3338,2.3335,2.3334,2.3354,2.3347,2.3341,2.3341,2.334,2.3339,0,2.2815,2.2835,2.2915,2.2959,2.2972,2.3022,2.306,2.3104,2.3121,2.3184,2.3199,2.3227,2.3285,2.3303,2.3373,2.3381,2.3464,2.3461,2.345,2.345,2.3497,2.3492,2.3648,2.3669,2.3543,2.3545,2.3546,0,2.288,2.2929,2.2979,2.3012,2.3037,2.3091,2.3125,2.3138,2.3174,2.3226,2.3263,2.3321,2.3367,2.346,2.3486,2.3539,2.3537,2.3588,2.3545,2.3541,2.3537,2.3534,2.3538,2.3596,2.3597,2.3598,2.3599,0,2.2995,2.3002,2.3051,2.3104,2.3145,2.3187,2.3228,2.3255,2.3275,2.3315,2.3374,2.341,2.3482,2.3538,2.3593,2.3617,2.3612,2.3613,2.3627,2.3624,2.3615,2.362,2.3471,2.3609,2.3608,2.3607,2.3607,2.3606,2.3074,2.3117,2.3159,2.3214,2.3246,2.3284,2.3328,2.3351,2.34,2.3459,2.3465,2.3528,2.357,2.3642,2.3669,2.3719,2.3705,2.3725,2.373,2.3734,2.3738,2.3608,2.3729,2.3729,2.3729,2.3729,2.3728,0,2.3187,2.3214,2.3264,2.3322,2.3365,2.3356,2.3401,2.3438,2.3494,2.3533,2.3579,2.3647,2.3702,2.3733,2.3788,2.3822,2.3821,2.3836,2.3833,2.3839,2.3748,2.373,2.3836,2.3836,2.3836,2.3836,2.3836,2.3836,2.3251,2.3324,2.3336,2.3425,2.3451,2.3513,2.3539,2.3575,2.3606,2.3682,2.3728,2.3747,2.3783,2.3841,2.3891,2.3899,2.3919,2.3936,2.3942,2.3856,2.3845,2.3835,2.3818,2.394,2.394,2.4028,2.4029,2.4029]},{"header":{"parameterUnit":"m.s-1","parameterCategory":1,"la1":30.2991,"la2":30.254,"lo1":-89.0895,"lo2":-89.0444,"dy":0.0017,"dx":0.0017,"nx":28,"ny":28,"refTime":"2025-08-15T03:00:00:Z","depth":0,"parameterNumber":3,"parameterNumberName":"V-component_of_WINDS"},"data":[0,0,0,0,0,0,0,0,0,0,0,0,0,0,0,0,0,0,0,0,0,0,0,0,0,0,0,0,0,0,0,0,0,0,0,0,0,0,0,0,0,0,0,0,0,0,0,0,0,0,0,0,0,0,0,0,0,0,0.4198,0.4198,0,0.4223,0.4223,0.4224,0.4215,0.4214,0.4214,0.4213,0.4241,0.4242,0.4243,0,0,0,0,0,0,0,0,0,0,0,0,0,0.4142,0.4143,0.4197,0.4198,0.4198,0.4223,0.4223,0.4224,0.4215,0.4214,0.4214,0.4213,0.424,0.4242,0.4243,0,0,0,0,0,0,0,0,0,0,0,0,0,0.4167,0.4144,0.4197,0.4197,0.4197,0.4223,0.4223,0.4224,0.4215,0.4214,0.4213,0.4213,0.424,0.4242,0.4243,0.4272,0,0,0.4249,0.425,0,0,0,0,0,0,0,0,0.4166,0.4169,0.4197,0.4197,0.4197,0.4215,0.4214,0.424,0.4215,0.4208,0.4213,0.4212,0.4233,0.4235,0.4242,0.4273,0.4274,0.4249,0.425,0.4251,0.4252,0,0,0,0,0,0,0,0.4164,0.4168,0.4208,0.4197,0.4197,0.4195,0.4198,0.4219,0.4225,0.4209,0.4208,0.4211,0.4233,0.424,0.4242,0.4275,0.4249,0.4251,0.4252,0.4253,0.433,0.4331,0,0,0,0,0,0,0.4162,0.4166,0.4207,0.4208,0.4179,0.4197,0.42,0.421,0.4225,0.4226,0.4212,0.4211,0.4237,0.424,0.4243,0.4278,0.4251,0.4253,0.4254,0.433,0.4331,0.4332,0,0,0,0,0,0,0.4161,0.4165,0.4206,0.4187,0.4192,0.4199,0.421,0.4211,0.4218,0.4227,0.4228,0.4218,0.4237,0.4241,0.4265,0.4279,0.4254,0.4256,0.4328,0.433,0.4331,0.4347,0,0,0,0,0,0,0.4159,0.4165,0.4176,0.4188,0.4193,0.4227,0.4211,0.4212,0.4221,0.422,0.4233,0.4235,0.4236,0.4262,0.4267,0.4281,0.4257,0.4327,0.4329,0.4331,0.4345,0.4349,0.4351,0,0,0,0,0,0.4157,0.418,0.4176,0.4181,0.4207,0.4227,0.4231,0.4232,0.4222,0.4234,0.4239,0.4234,0.4276,0.4264,0.427,0.4285,0.4326,0.4329,0.4331,0.4344,0.4348,0.4351,0,0,0,0,0,0,0.417,0.4181,0.4178,0.4205,0.4215,0.4226,0.424,0.4236,0.425,0.4248,0.4249,0.4252,0.4277,0.4283,0.427,0.4313,0.43,0.4303,0.4308,0.4312,0.4315,0.4314,0.4259,0,0,0,0,0,0.4176,0.4191,0.42,0.4223,0.4228,0.4233,0.4242,0.4242,0.4253,0.4258,0.4265,0.4276,0.4292,0.4302,0.4317,0.4346,0.4348,0.4358,0.4361,0.4364,0.4367,0.4383,0.4387,0.4339,0.4339,0.4339,0,0,0.4189,0.4196,0.4206,0.4226,0.4234,0.425,0.4237,0.4255,0.4267,0.426,0.4284,0.4289,0.4302,0.4328,0.434,0.4334,0.4381,0.4367,0.4369,0.437,0.4385,0.439,0.4394,0.434,0.434,0.434,0,0,0.422,0.4227,0.4247,0.4255,0.4267,0.427,0.4275,0.4286,0.4289,0.4312,0.4308,0.4322,0.4349,0.4358,0.4366,0.44,0.4396,0.4405,0.4422,0.4437,0.4441,0.4444,0.4456,0.4461,0.4408,0.4408,0.4408,0,0.4234,0.4258,0.4258,0.4276,0.4285,0.4279,0.4299,0.4307,0.4323,0.433,0.4322,0.4356,0.4364,0.4392,0.44,0.4407,0.4412,0.4404,0.444,0.4443,0.4447,0.4458,0.4463,0.4409,0.4408,0.4408,0.4408,0,0.4275,0.4292,0.4306,0.4322,0.4332,0.4351,0.4354,0.4365,0.4363,0.4367,0.439,0.4399,0.4416,0.4423,0.4422,0.4451,0.4446,0.444,0.4427,0.4452,0.4463,0.4468,0.441,0.441,0.4409,0.4409,0,0,0.4317,0.4331,0.4336,0.4343,0.4355,0.4368,0.4387,0.4403,0.4412,0.4423,0.4439,0.4461,0.4455,0.4464,0.4464,0.4477,0.4503,0.4469,0.4469,0.4475,0.4536,0.4542,0.4547,0.4501,0.4501,0.4502,0.4535,0,0.4349,0.4382,0.4381,0.4411,0.4427,0.4421,0.4437,0.4447,0.445,0.4464,0.4468,0.4484,0.4474,0.448,0.4492,0.4498,0.4516,0.4495,0.4516,0.4517,0.4513,0.4553,0.4559,0.459,0.454,0.454,0.4541,0,0.4392,0.4404,0.4435,0.4445,0.4451,0.4466,0.448,0.4493,0.4504,0.4506,0.4515,0.4513,0.4532,0.4518,0.4545,0.453,0.4539,0.4543,0.4544,0.4546,0.4531,0.4557,0.4599,0.4604,0.4548,0.4547,0.4546,0,0.4419,0.4443,0.4465,0.4471,0.4483,0.4493,0.4499,0.4508,0.4518,0.453,0.4536,0.455,0.4559,0.457,0.4572,0.4561,0.4598,0.4584,0.4601,0.4601,0.4609,0.4609,0.4655,0.4614,0.4614,0.4614,0.4613,0,0.4456,0.4476,0.4478,0.4491,0.4513,0.4512,0.4534,0.4538,0.4547,0.4561,0.4557,0.4571,0.4572,0.4586,0.4587,0.4609,0.4613,0.4615,0.4615,0.4616,0.4615,0.4622,0.462,0.4615,0.4615,0.4614,0.4614,0,0.4491,0.4493,0.4516,0.4525,0.4528,0.4543,0.4551,0.4564,0.4567,0.4585,0.459,0.4594,0.4611,0.4613,0.4632,0.4633,0.4659,0.4657,0.4656,0.4656,0.4672,0.4671,0.4724,0.4731,0.4685,0.4685,0.4686,0,0.4515,0.4529,0.4539,0.4549,0.4554,0.4569,0.4578,0.4578,0.4588,0.4601,0.4612,0.4628,0.464,0.4667,0.4672,0.4687,0.4685,0.4703,0.4688,0.4687,0.4686,0.4685,0.4687,0.4706,0.4707,0.4707,0.4707,0,0.4557,0.4557,0.457,0.4583,0.4594,0.4605,0.4615,0.4622,0.4624,0.4635,0.4651,0.4661,0.468,0.4696,0.471,0.4716,0.4712,0.4712,0.4716,0.4717,0.4716,0.4717,0.4664,0.4711,0.4711,0.471,0.471,0.471,0.4587,0.46,0.4609,0.4623,0.4631,0.464,0.4652,0.4656,0.467,0.4685,0.4684,0.4702,0.4712,0.4731,0.4737,0.4752,0.4746,0.4753,0.4754,0.4756,0.4758,0.4713,0.4754,0.4754,0.4754,0.4754,0.4754,0,0.4629,0.4634,0.4648,0.4661,0.4673,0.4667,0.4678,0.4688,0.4704,0.4713,0.4725,0.4744,0.4759,0.4765,0.4779,0.479,0.4788,0.4794,0.4793,0.4795,0.4762,0.4757,0.4794,0.4794,0.4794,0.4794,0.4794,0.4794,0.4652,0.4674,0.4674,0.4699,0.4704,0.4722,0.4728,0.4737,0.4744,0.4765,0.4777,0.4781,0.4788,0.4804,0.4817,0.4818,0.4824,0.4831,0.4831,0.4801,0.4797,0.4793,0.4788,0.4832,0.4832,0.4863,0.4863,0.4863]}]]